Regional Weather Roundup
Issued by NWS

Current Version | Previous Version | Text Only | Print | Product List | Glossary On
Versions: 1 2 3 4 5 6 7 8 9 10 11 12 13 14 15 16 17 18 19 20 21 22 23 24 25 26 27 28 29 30 31 32 33 34 35 36 37 38 39 40 41 42 43 44 45 46 47 48 49 50
000
ASUS46 KLOX 270913
RWRCA

SOUTHERN CALIFORNIA WEATHER ROUNDUP
NATIONAL WEATHER SERVICE OXNARD CALIFORNIA
200 AM PDT FRI MAY 27 2016

NOTE: "FAIR" INDICATES FEW OR NO CLOUDS BELOW 12,000 FEET WITH NO
SIGNIFICANT WEATHER AND/OR OBSTRUCTIONS TO VISIBILITY.

  -  STATIONS PRECEEDED BY AN ASTERISK (*) ARE NOT NWS OR FAA
     STATIONS AND ARE NOT SUBJECT TO NWS AND FAA QUALITY CONTROL.

CAZ041-042-087-271000-
LA AND ORANGE COUNTY COASTAL AREAS


CITY           SKY/WX    TMP DP  RH WIND       PRES   REMARKS
L.A. DOWNTOWN  CLEAR     59  54  83 CALM      29.97F
L.A. AIRPORT   MOCLDY    59  54  83 W5        29.97F
LONG BEACH     CLEAR     60  54  80 CALM      29.97F

CITY           SKY/WX    TMP DP  RH WIND       PRES   REMARKS
AVALON           N/A     57 N/A N/A E5          N/A
FULLERTON      CLEAR     61  55  81 S3        29.97S
*GETTY CENTER    N/A     52  50  93 CALM        N/A
HAWTHORNE      CLEAR     60  54  80 CALM      29.98F
*LEO CARRILLO    N/A     55  49  81 N7          N/A
*LOS ALAMITOS  FAIR      58  55  87 SE3       29.97F
*REDONDO BEACH   N/A     57  52  84 CALM      29.96F
SANTA ANA      MOCLDY    60  55  83 SE3       29.98S
STA MONICA APT PTCLDY    58  53  84 CALM      29.97F
*STA MON PIER    N/A     59  54  84 E1        29.91S
*UCLA            N/A     55  50  82 CALM      29.95S

$$

CAZ547-548-048-271000-
LA COUNTY VALLEYS AND INLAND EMPIRE


CITY           SKY/WX    TMP DP  RH WIND       PRES   REMARKS
BURBANK        CLEAR     57  49  74 CALM      29.96F
VAN NUYS       CLEAR     58  50  75 CALM      29.97F

CITY           SKY/WX    TMP DP  RH WIND       PRES   REMARKS
CORONA AIRPORT SUNNY     52  49  89 CALM      29.98F
*CHATSWORTH      N/A     58  50  76 CALM      29.97F
CHINO          CLEAR     56  51  84 W5        29.99S
MARCH AFB      CLEAR     55  51  86 S3        29.97F
*NORTHRIDGE      N/A     57  48  72 CALM        N/A
ONTARIO        CLEAR     56  51  84 W3        29.97F
*PASADENA        N/A     59  54  82 CALM        N/A
RIVERSIDE      CLEAR     59  52  77 W3        29.97F
SAN BERNARDINO NOT AVBL
*SAN RAFAEL HI   N/A     53  50  90 SW6         N/A
*SAUGUS          N/A     58  51  78 CALM        N/A
*WHITEMAN AP   NOT AVBL
*WHITTIER HILL   N/A     55  54  97 SE3         N/A
*WOODLAND HILL   N/A     55  50  82 CALM        N/A

$$

CAZ054-055-271000-
LA AND SAN BERNARDINO COUNTY MOUNTAINS


CITY           SKY/WX    TMP DP  RH WIND       PRES   REMARKS
*BIG BEAR AIRP SUNNY     36  32  87 CALM      30.10F
SANDBERG       CLEAR     57  41  55 N14G24    30.05F

$$

CAZ028-029-059-060-099-271000-
ANTELOPE VALLEY AND SURROUNDING AREAS


CITY           SKY/WX    TMP DP  RH WIND       PRES   REMARKS
LANCASTER      CLEAR     63  42  46 W12       29.95F
PALMDALE       CLEAR     59  41  51 SW12      29.96F
*POPPY PARK      N/A     63  40  43 W16         N/A

CITY           SKY/WX    TMP DP  RH WIND       PRES   REMARKS
29 PALMS       CLEAR     68  41  37 NW12      29.96F
BARSTOW/DAGGET CLEAR     68  41  37 W9        29.91S
BISHOP         PTCLDY    50  32  50 N7        30.00F
CHINA LAKE     CLEAR     60  38  43 CALM      29.89S
EDWARDS AFB    CLEAR     60  40  48 SW10      29.92F
NEEDLES        CLEAR     77  31  18 W7        29.79F
VICTORVILLE    CLEAR     57  43  58 CALM      29.97F

$$

CAZ039-040-271000-
VENTURA AND SANTA BARBARA COUNTY COAST


CITY           SKY/WX    TMP DP  RH WIND       PRES   REMARKS
CAMARILLO      CLEAR     55  51  86 CALM      29.97S
OXNARD AIRPORT CLEAR     56  53  90 CALM      29.97S
*POINT MUGU    CLEAR     54  52  93 CALM      29.98S
SBA APT/GOLETA CLEAR     58  54  86 E7        29.94F
*SANTA BARBARA   N/A     59  53  79 CALM      30.03S
*VENTURA         N/A     54  51  90 NE1       29.95F

$$

CAZ044-045-271000-
VENTURA COUNTY VALLEYS


CITY           SKY/WX    TMP DP  RH WIND       PRES   REMARKS
*SIMI VALLEY     N/A     54  49  84 CALM      29.92S
*WESTLAKE VILL   N/A     52  47  84 CALM      29.95F
*OJAI            N/A     47  44  91 CALM      29.91F
*FILLMORE        N/A     52  45  78 CALM      29.86F

$$

CAZ053-271000-
VENTURA COUNTY MOUNTAINS


CITY           SKY/WX    TMP DP  RH WIND       PRES   REMARKS
*ROSE VALLEY     N/A     43  36  75 MISG        N/A

$$

CAZ034-035-036-271000-
CENTRAL COAST AND SANTA YNEZ VALLEY


CITY           SKY/WX    TMP DP  RH WIND       PRES   REMARKS
SAN LUIS OBISP CLOUDY    56  51  84 CALM      30.00F
SANTA MARIA    CLOUDY    53  52  96 NW7       30.01F FOG

CITY           SKY/WX    TMP DP  RH WIND       PRES   REMARKS
*CAL POLY SLO    N/A     54  52  94 CALM        N/A
*LOMPOC        CLOUDY    55  51  86 NW7       30.02S
*PISMO BEACH     N/A     54  51  89 NE1       30.01S
*SANTA YNEZ    CLOUDY    52  46  82 CALM      30.00F

$$

CAZ037-038-051-271000-
SAN LUIS OBISPO COUNTY INTERIOR AND CUYAMA VALLEY


CITY           SKY/WX    TMP DP  RH WIND       PRES   REMARKS
*CUYAMA          N/A     52  44  74 W1        29.94S
PASO ROBLES    CLEAR     53  48  83 NW6       29.99F

$$

CAZ032-033-061-271000-
SOUTHERN DESERTS


CITY           SKY/WX    TMP DP  RH WIND       PRES   REMARKS
BLYTHE         CLEAR     72  48  42 S13       29.81S
IMPERIAL       CLEAR     69  49  48 W8        29.80F
PALM SPRINGS     N/A    N/A N/A N/A MISG      29.83F
THERMAL        CLEAR     73  50  44 NW15G22   29.79F

$$

ELSEWHERE ACROSS THE WESTERN UNITED STATES AND MEXICO


CITY           SKY/WX    TMP DP  RH WIND       PRES   REMARKS
DEATH VALLEY,    N/A     79  32  18 CALM        N/A
DENVER, CO     LGT RAIN  47  43  86 CALM      29.87F
GRAND CANYON,  CLEAR     31  23  72 CALM      30.07S
HONOLULU, HI   PTCLDY    75  70  83 E5        30.11R
KAHULUI, MAUI  CLEAR     72  66  83 CALM      30.09S
LAKE TAHOE, CA NOT AVBL
LAS VEGAS, NV  PTCLDY    72  32  23 S3        29.81S
MAMMOTH LAKES, FAIR      40  34  80 W9        30.15F WCI  33
MEXICO CITY, M PTCLDY    59  52  77 CALM      30.30S
PHOENIX, AZ    CLEAR     72  34  24 E8        29.82F
PORTLAND, OR   CLOUDY    54  45  71 CALM      30.21F
RENO, NV       PTCLDY    56  39  53 SE5       30.06F
SALT LAKE CITY PTCLDY    55  40  56 SE7       29.95F
SAN DIEGO, CA  CLOUDY    65  55  70 SW5       29.99F
SAN FRANCISCO, PTCLDY    55  49  80 S3        29.99F
SAN JOSE, CA   CLEAR     55  49  80 SE8       29.99F
SEATTLE, WA    CLOUDY    51  42  71 S12       30.14F
TIJUANA, MEX   CLOUDY    61  50  67 CALM      30.01S

$$

STATION/POSITION TIME  TEMP    WIND        PRES    VSBY  WAVE
                       AIR SEA DIR/SP/G                  HT/PER
                 (UTC) (F)     (DEG/KT/KT) (MB)    (MI)  (FT/S)
POINT ARGUELLO B NOT AVBL
WEST SANTA BARBA 0850   54 53  320/ 21/ 27 1014.4R         6/ 9
POINT CONCEPTION NOT AVBL
EAST SANTA BARBA 0900   58     130/  2/  4 1014.3F         4/ 7
SANTA MONICA BAY 0850   60 63  160/  4/  8 1014.8F         4/ 6


USA.gov is the U.S. government's official web portal to all federal, state and local government web resources and services.